When you browse on this site, cookies collect data to enhance your experience and personalize the content and advertising you see.
Visit our Privacy Policy to learn more. By continuing to use the site, you agree to this use of cookies and data.
  • en France
  • Liste des pays
  • À 7 jours
  • Température de l'eau
  • Carte satellitaire
  • Carte météo
  • Widgets météo
  • user-avatar
    Se connecter

    Météo par heure à Choumen

    Ce jour, 23 Mai, Jeudi

    Heure Température Précipitation Vent Pression Humidité
    00:00 +14°C° 0 mm 1 m/s 728 mmHg 82%
    01:00 +14°C° 0 mm 1 m/s 728 mmHg 82%
    02:00 +13°C° 0 mm 1 m/s 727 mmHg 83%
    03:00 +13°C° 0 mm 1 m/s 727 mmHg 82%
    04:00 +13°C° 0 mm 1 m/s 727 mmHg 82%
    05:00 +13°C° 0 mm 1 m/s 727 mmHg 82%
    06:00 +15°C° 0 mm 2 m/s 727 mmHg 78%
    07:00 +17°C° 0 mm 3 m/s 728 mmHg 73%
    08:00 +19°C° 0 mm 3 m/s 728 mmHg 68%
    09:00 +20°C° 0.1 mm 4 m/s 728 mmHg 66%
    10:00 +21°C° 0.1 mm 4 m/s 728 mmHg 64%
    11:00 +22°C° 0.1 mm 5 m/s 728 mmHg 62%
    12:00 +22°C° 0.2 mm 5 m/s 728 mmHg 60%
    13:00 +22°C° 0.2 mm 5 m/s 728 mmHg 59%
    14:00 +23°C° 0.2 mm 5 m/s 727 mmHg 58%
    15:00 +22°C° 0.1 mm 4 m/s 727 mmHg 60%
    16:00 +22°C° 0.1 mm 4 m/s 727 mmHg 62%
    17:00 +22°C° 0.1 mm 4 m/s 727 mmHg 64%
    18:00 +20°C° 0 mm 3 m/s 727 mmHg 70%
    19:00 +18°C° 0 mm 3 m/s 726 mmHg 77%
    20:00 +17°C° 0 mm 2 m/s 726 mmHg 83%
    21:00 +16°C° 0 mm 2 m/s 726 mmHg 85%
    22:00 +15°C° 0 mm 2 m/s 726 mmHg 86%
    23:00 +15°C° 0 mm 2 m/s 726 mmHg 87%

    Demain, 24 Mai, Vendredi

    Heure Température Précipitation Vent Pression Humidité
    00:00 +14°C° 0 mm 2 m/s 726 mmHg 88%
    01:00 +14°C° 0 mm 2 m/s 726 mmHg 89%
    02:00 +13°C° 0 mm 2 m/s 726 mmHg 90%
    03:00 +12°C° 0 mm 3 m/s 726 mmHg 90%
    04:00 +12°C° 0 mm 3 m/s 726 mmHg 89%
    05:00 +12°C° 0 mm 3 m/s 726 mmHg 89%
    06:00 +13°C° 0 mm 4 m/s 726 mmHg 86%
    07:00 +14°C° 0 mm 5 m/s 726 mmHg 83%
    08:00 +15°C° 0 mm 6 m/s 726 mmHg 80%
    09:00 +15°C° 0.1 mm 6 m/s 726 mmHg 80%
    10:00 +16°C° 0.1 mm 5 m/s 726 mmHg 80%
    11:00 +16°C° 0.1 mm 5 m/s 726 mmHg 79%
    12:00 +19°C° 0.1 mm 5 m/s 726 mmHg 74%
    13:00 +20°C° 0.1 mm 4 m/s 726 mmHg 68%
    14:00 +21°C° 0.1 mm 4 m/s 725 mmHg 63%
    15:00 +21°C° 0.6 mm 4 m/s 725 mmHg 66%
    16:00 +21°C° 0.6 mm 4 m/s 725 mmHg 69%
    17:00 +20°C° 0.6 mm 4 m/s 724 mmHg 72%
    18:00 +19°C° 0.8 mm 4 m/s 724 mmHg 77%
    19:00 +17°C° 0.8 mm 3 m/s 724 mmHg 82%
    20:00 +16°C° 0.8 mm 3 m/s 724 mmHg 87%
    21:00 +14°C° 0.5 mm 3 m/s 725 mmHg 88%
    22:00 +14°C° 0.5 mm 3 m/s 725 mmHg 88%
    23:00 +13°C° 0.5 mm 4 m/s 725 mmHg 88%

    Après-demain, 25 Mai, Samedi

    Heure Température Précipitation Vent Pression Humidité
    00:00 +13°C° 0.1 mm 4 m/s 725 mmHg 88%
    01:00 +12°C° 0.1 mm 4 m/s 725 mmHg 88%
    02:00 +12°C° 0.1 mm 4 m/s 725 mmHg 88%
    03:00 +12°C° 0 mm 4 m/s 725 mmHg 88%
    04:00 +12°C° 0 mm 4 m/s 725 mmHg 88%
    05:00 +11°C° 0 mm 4 m/s 725 mmHg 88%
    06:00 +13°C° 0 mm 5 m/s 726 mmHg 84%
    07:00 +14°C° 0 mm 6 m/s 726 mmHg 81%
    08:00 +16°C° 0 mm 7 m/s 727 mmHg 77%
    09:00 +17°C° 0 mm 6 m/s 727 mmHg 74%
    10:00 +19°C° 0 mm 6 m/s 727 mmHg 70%
    11:00 +21°C° 0 mm 6 m/s 727 mmHg 67%
    12:00 +21°C° 0.5 mm 6 m/s 727 mmHg 66%
    13:00 +22°C° 0.5 mm 5 m/s 727 mmHg 66%
    14:00 +22°C° 0.5 mm 5 m/s 727 mmHg 65%
    15:00 +22°C° 0.2 mm 5 m/s 727 mmHg 65%
    16:00 +22°C° 0.2 mm 5 m/s 727 mmHg 66%
    17:00 +22°C° 0.2 mm 5 m/s 727 mmHg 66%
    18:00 +20°C° 0 mm 4 m/s 727 mmHg 73%
    19:00 +18°C° 0 mm 3 m/s 727 mmHg 79%
    20:00 +17°C° 0 mm 3 m/s 727 mmHg 85%
    21:00 +16°C° 0 mm 3 m/s 727 mmHg 85%
    22:00 +14°C° 0 mm 3 m/s 727 mmHg 86%
    23:00 +14°C° 0 mm 3 m/s 728 mmHg 86%

    26 Mai, Dimanche

    Heure Température Précipitation Vent Pression Humidité
    00:00 +14°C° 0 mm 3 m/s 728 mmHg 86%
    01:00 +14°C° 0 mm 2 m/s 728 mmHg 85%
    02:00 +14°C° 0 mm 2 m/s 728 mmHg 85%
    03:00 +14°C° 0 mm 2 m/s 728 mmHg 86%
    04:00 +14°C° 0 mm 2 m/s 728 mmHg 88%
    05:00 +13°C° 0 mm 1 m/s 728 mmHg 89%
    06:00 +15°C° 0 mm 1 m/s 729 mmHg 83%
    07:00 +19°C° 0 mm 1 m/s 729 mmHg 76%
    08:00 +21°C° 0 mm 1 m/s 730 mmHg 69%
    09:00 +22°C° 0 mm 1 m/s 730 mmHg 64%
    10:00 +23°C° 0 mm 1 m/s 730 mmHg 59%
    11:00 +25°C° 0 mm 1 m/s 730 mmHg 54%
    12:00 +25°C° 0 mm 2 m/s 730 mmHg 51%
    13:00 +26°C° 0 mm 2 m/s 730 mmHg 48%
    14:00 +27°C° 0 mm 2 m/s 730 mmHg 46%
    15:00 +27°C° 0 mm 2 m/s 729 mmHg 49%
    16:00 +27°C° 0 mm 3 m/s 729 mmHg 51%
    17:00 +26°C° 0 mm 3 m/s 729 mmHg 54%
    18:00 +24°C° 0 mm 3 m/s 729 mmHg 62%
    19:00 +21°C° 0 mm 3 m/s 729 mmHg 70%
    20:00 +19°C° 0 mm 3 m/s 729 mmHg 78%
    21:00 +18°C° 0 mm 3 m/s 729 mmHg 80%
    22:00 +17°C° 0 mm 3 m/s 729 mmHg 83%
    23:00 +16°C° 0 mm 2 m/s 729 mmHg 86%

    27 Mai, Lundi

    Heure Température Précipitation Vent Pression Humidité
    00:00 +16°C° 0 mm 2 m/s 729 mmHg 87%
    01:00 +15°C° 0 mm 2 m/s 729 mmHg 89%
    02:00 +15°C° 0 mm 2 m/s 729 mmHg 90%
    03:00 +15°C° 0 mm 2 m/s 729 mmHg 91%
    04:00 +15°C° 0 mm 2 m/s 729 mmHg 91%
    05:00 +15°C° 0 mm 2 m/s 728 mmHg 91%
    06:00 +17°C° 0 mm 2 m/s 729 mmHg 84%
    07:00 +19°C° 0 mm 3 m/s 729 mmHg 76%
    08:00 +21°C° 0 mm 3 m/s 729 mmHg 69%
    09:00 +22°C° 0 mm 4 m/s 729 mmHg 64%
    10:00 +25°C° 0 mm 5 m/s 729 mmHg 58%
    11:00 +26°C° 0 mm 5 m/s 729 mmHg 53%
    12:00 +27°C° 0 mm 5 m/s 729 mmHg 53%
    13:00 +27°C° 0 mm 6 m/s 729 mmHg 52%
    14:00 +28°C° 0 mm 6 m/s 728 mmHg 51%
    15:00 +27°C° 0 mm 5 m/s 728 mmHg 55%
    16:00 +26°C° 0 mm 5 m/s 728 mmHg 59%
    17:00 +25°C° 0 mm 5 m/s 728 mmHg 63%
    18:00 +22°C° 0 mm 4 m/s 728 mmHg 67%
    19:00 +20°C° 0 mm 4 m/s 727 mmHg 71%
    20:00 +18°C° 0 mm 3 m/s 727 mmHg 75%
    21:00 +17°C° 0 mm 3 m/s 727 mmHg 76%
    22:00 +17°C° 0 mm 3 m/s 727 mmHg 77%
    23:00 +16°C° 0 mm 3 m/s 727 mmHg 79%

    28 Mai, Mardi

    Heure Température Précipitation Vent Pression Humidité
    00:00 +16°C° 0.2 mm 3 m/s 727 mmHg 82%
    01:00 +16°C° 0.2 mm 2 m/s 726 mmHg 85%
    02:00 +15°C° 0.2 mm 2 m/s 726 mmHg 88%
    03:00 +15°C° 0.3 mm 2 m/s 726 mmHg 89%
    04:00 +15°C° 0.3 mm 2 m/s 726 mmHg 89%
    05:00 +14°C° 0.3 mm 2 m/s 726 mmHg 90%
    06:00 +17°C° 0.3 mm 2 m/s 726 mmHg 84%
    07:00 +19°C° 0.3 mm 3 m/s 726 mmHg 78%
    08:00 +21°C° 0.3 mm 3 m/s 726 mmHg 73%
    09:00 +23°C° 0 mm 4 m/s 726 mmHg 64%
    10:00 +26°C° 0 mm 5 m/s 726 mmHg 55%
    11:00 +28°C° 0 mm 6 m/s 726 mmHg 46%
    12:00 +28°C° 0 mm 6 m/s 726 mmHg 44%
    13:00 +29°C° 0 mm 7 m/s 726 mmHg 43%
    14:00 +30°C° 0 mm 7 m/s 725 mmHg 41%
    15:00 +29°C° 0 mm 6 m/s 725 mmHg 44%
    16:00 +29°C° 0 mm 5 m/s 725 mmHg 48%
    17:00 +28°C° 0 mm 4 m/s 725 mmHg 51%
    18:00 +26°C° 0 mm 4 m/s 725 mmHg 54%
    19:00 +22°C° 0 mm 3 m/s 725 mmHg 58%
    20:00 +20°C° 0 mm 3 m/s 725 mmHg 61%
    21:00 +19°C° 0 mm 2 m/s 725 mmHg 64%
    22:00 +17°C° 0 mm 2 m/s 725 mmHg 67%
    23:00 +16°C° 0 mm 1 m/s 725 mmHg 69%
    Voir plus